This demonstration page uses our WeatherBlox Daily Observations layout. Learn more.

Left ArrowRight Arrow

53.62937, 11.41316

Hourly Observations for November 27, 2020

Temp ( °F °C ) Dew Point ( °F °C ) Humidity (%) Winds ( mph kmh ) Pressure ( in mb ) Visibility ( mi km ) Precip ( " mm )
6:50 am 06:50 Mostly Cloudy with Freezing Fog 30 -1 30 -1 100 100 VRB 1 2 30.15 1021 0 0 N/A
7:20 am 07:20 Mostly Cloudy with Freezing Fog 30 -1 30 -1 100 100 VRB 1 2 30.15 1021 0 0 N/A
7:50 am 07:50 Mostly Cloudy with Freezing Fog 30 -1 30 -1 100 100 VRB 1 2 30.15 1021 0 0 N/A
8:20 am 08:20 Mostly Cloudy with Freezing Fog 30 -1 30 -1 100 100 VRB 1 2 30.18 1022 0 0 N/A
8:50 am 08:50 Mostly Cloudy with Freezing Fog 30 -1 28 -2 93 93 VRB 1 2 30.18 1022 0 0 N/A
9:20 am 09:20 Mostly Cloudy with Freezing Fog 30 -1 30 -1 100 100 VRB 1 2 30.18 1022 0 0 N/A
9:50 am 09:50 Mostly Cloudy with Freezing Fog 30 -1 30 -1 100 100 VRB 1 2 30.18 1022 0 0 N/A
10:20 am 10:20 Mostly Cloudy with Freezing Fog 30 -1 30 -1 100 100 VRB 1 2 30.18 1022 0 0 N/A
10:50 am 10:50 Partly Cloudy with Freezing Fog 32 0 32 0 100 100 VRB 1 2 30.18 1022 0 0 N/A
11:20 am 11:20 Partly Cloudy with Fog 32 0 32 0 100 100 VRB 1 2 30.18 1022 0 0 N/A
11:50 am 11:50 Partly Cloudy with Fog 34 1 34 1 100 100 VRB 1 2 30.18 1022 0 0 N/A
12:20 pm 12:20 Partly Cloudy with Fog 36 2 34 1 93 93 VRB 1 2 30.18 1022 0 0 N/A
12:50 pm 12:50 Partly Cloudy with Fog 36 2 36 2 100 100 VRB 1 2 30.18 1022 0 0 N/A
1:20 pm 13:20 Partly Cloudy with Fog 37 3 37 3 100 100 VRB 1 2 30.18 1022 0 0 N/A
1:50 pm 13:50 Partly Cloudy with Fog 37 3 37 3 100 100 VRB 1 2 30.18 1022 0 0 N/A
2:20 pm 14:20 Partly Cloudy with Fog 39 4 37 3 93 93 VRB 1 2 30.18 1022 0 0 N/A
2:50 pm 14:50 Partly Cloudy with Fog 37 3 37 3 100 100 VRB 1 2 30.18 1022 0 0 N/A
3:20 pm 15:20 Partly Cloudy with Fog 37 3 36 2 93 93 ENE 2 4 30.18 1022 0 1 N/A
3:50 pm 15:50 Partly Cloudy with Fog 36 2 36 2 100 100 W 1 2 30.18 1022 0 1 N/A
4:20 pm 16:20 Mostly Clear with Fog 36 2 36 2 100 100 VRB 1 2 30.18 1022 0 0 N/A
4:50 pm 16:50 Mostly Clear with Fog 34 1 34 1 100 100 VRB 1 2 30.18 1022 0 0 N/A
5:20 pm 17:20 Mostly Clear with Fog 34 1 34 1 100 100 VRB 1 2 30.18 1022 0 0 N/A
5:50 pm 17:50 Mostly Clear with Freezing Fog 32 0 32 0 100 100 Calm 30.18 1022 0 0 N/A
6:20 pm 18:20 Mostly Clear with Fog 32 0 32 0 100 100 VRB 1 2 30.21 1023 0 0 N/A
6:50 pm 18:50 Mostly Clear with Fog 32 0 32 0 100 100 VRB 1 2 30.21 1023 0 0 N/A
7:20 pm 19:20 Mostly Clear with Fog 34 1 34 1 100 100 VRB 1 2 30.21 1023 0 0 N/A
7:50 pm 19:50 Mostly Clear with Fog 34 1 34 1 100 100 VRB 1 2 30.21 1023 0 0 N/A
8:20 pm 20:20 Mostly Clear with Fog 34 1 34 1 100 100 VRB 2 4 30.21 1023 0 0 N/A
8:50 pm 20:50 Mostly Clear with Fog 34 1 34 1 100 100 VRB 1 2 30.21 1023 0 0 N/A
9:20 pm 21:20 Mostly Clear with Fog 34 1 34 1 100 100 Calm 30.21 1023 0 0 N/A
9:50 pm 21:50 Mostly Clear with Fog 34 1 34 1 100 100 VRB 1 2 30.21 1023 0 0 N/A

Powered by AerisWeather